START_TIME,STEP,MOV.,E45,t_acc.,ALAR?,t_acc.,A12,t_acc.,A24,t_acc.
1979-07-07 06:00:26.930 ,0,1,0.,4.8,3392.,4.8,1.,4.8,0.,4.8
1979-07-07 06:00:31.730 ,0,1,0.,4.8,3072.,4.8,0.,4.8,0.,4.8
1979-07-07 06:00:36.530 ,0,1,0.,4.8,336.,4.8,0.,4.8,0.,4.8
1979-07-07 06:00:41.330 ,0,1,0.,4.8,2688.,4.8,0.,4.8,0.,4.8
1979-07-07 06:00:46.130 ,0,1,0.,4.8,2688.,4.8,0.,4.8,0.,4.8
1979-07-07 06:00:50.930 ,4,1,0.,4.8,592.,4.8,0.,4.8,0.,4.8
1979-07-07 06:00:55.730 ,4,1,0.,4.8,3456.,4.8,0.,4.8,0.,4.8
1979-07-07 06:01:00.530 ,4,1,0.,4.8,3648.,4.8,1.,4.8,0.,4.8
1979-07-07 06:01:05.330 ,4,1,0.,4.8,1888.,4.8,0.,4.8,0.,4.8
1979-07-07 06:01:10.130 ,4,1,0.,4.8,2240.,4.8,0.,4.8,0.,4.8
1979-07-07 06:01:14.930 ,7,1,0.,4.8,2240.,4.8,0.,4.8,0.,4.8
1979-07-07 06:01:19.730 ,7,1,0.,4.8,4032.,4.8,0.,4.8,0.,4.8
1979-07-07 06:01:24.530 ,7,1,0.,4.8,1472.,4.8,1.,4.8,0.,4.8
1979-07-07 06:01:29.330 ,7,1,0.,4.8,832.,4.8,0.,4.8,0.,4.8
1979-07-07 06:01:34.130 ,7,1,0.,4.8,624.,4.8,0.,4.8,0.,4.8
1979-07-07 06:01:38.930 ,3,1,0.,4.8,1216.,4.8,0.,4.8,0.,4.8
1979-07-07 06:01:43.730 ,3,1,0.,4.8,3200.,4.8,0.,4.8,0.,4.8
1979-07-07 06:01:48.530 ,3,1,0.,4.8,220.,4.8,0.,4.8,0.,4.8
1979-07-07 06:01:53.330 ,3,1,0.,4.8,176.,4.8,0.,4.8,0.,4.8
1979-07-07 06:01:58.130 ,3,1,0.,4.8,1152.,4.8,0.,4.8,0.,4.8
1979-07-07 06:02:02.930 ,0,1,0.,4.8,3200.,4.8,0.,4.8,0.,4.8
1979-07-07 06:02:07.730 ,0,1,0.,4.8,3584.,4.8,0.,4.8,0.,4.8
1979-07-07 06:02:12.530 ,0,1,0.,4.8,200.,4.8,0.,4.8,0.,4.8
1979-07-07 06:02:17.330 ,0,1,0.,4.8,1088.,4.8,0.,4.8,0.,4.8
1979-07-07 06:02:22.130 ,0,1,0.,4.8,1600.,4.8,0.,4.8,0.,4.8
1979-07-07 06:02:26.930 ,4,1,0.,4.8,4032.,4.8,0.,4.8,0.,4.8
1979-07-07 06:02:31.730 ,4,1,0.,4.8,3456.,4.8,0.,4.8,0.,4.8
1979-07-07 06:02:36.530 ,4,1,0.,4.8,3392.,4.8,0.,4.8,0.,4.8
1979-07-07 06:02:41.330 ,4,1,0.,4.8,1440.,4.8,0.,4.8,0.,4.8
1979-07-07 06:02:46.130 ,4,1,0.,4.8,576.,4.8,0.,4.8,0.,4.8
1979-07-07 06:02:50.930 ,7,1,0.,4.8,504.,4.8,0.,4.8,0.,4.8
1979-07-07 06:02:55.730 ,7,1,0.,4.8,3392.,4.8,0.,4.8,0.,4.8
1979-07-07 06:03:00.530 ,7,1,0.,4.8,688.,4.8,0.,4.8,0.,4.8
1979-07-07 06:03:05.330 ,7,1,0.,4.8,880.,4.8,0.,4.8,0.,4.8
1979-07-07 06:03:10.130 ,7,1,0.,4.8,752.,4.8,0.,4.8,0.,4.8
1979-07-07 06:03:14.930 ,3,1,0.,4.8,1408.,4.8,0.,4.8,0.,4.8
1979-07-07 06:03:19.730 ,3,1,0.,4.8,384.,4.8,0.,4.8,0.,4.8
1979-07-07 06:03:24.530 ,3,1,0.,4.8,3328.,4.8,0.,4.8,0.,4.8
1979-07-07 06:03:29.330 ,3,1,0.,4.8,2304.,4.8,0.,4.8,0.,4.8
1979-07-07 06:03:34.130 ,3,1,0.,4.8,2944.,4.8,0.,4.8,0.,4.8
1979-07-07 06:03:38.930 ,0,1,0.,4.8,1952.,4.8,0.,4.8,0.,4.8
1979-07-07 06:03:43.730 ,0,1,0.,4.8,1184.,4.8,0.,4.8,0.,4.8
1979-07-07 06:03:48.530 ,0,1,0.,4.8,3072.,4.8,0.,4.8,0.,4.8
1979-07-07 06:03:53.330 ,0,1,0.,4.8,1472.,4.8,0.,4.8,0.,4.8
1979-07-07 06:03:58.130 ,0,1,0.,4.8,1408.,4.8,0.,4.8,0.,4.8
1979-07-07 06:04:02.930 ,4,1,0.,4.8,3328.,4.8,0.,4.8,0.,4.8
1979-07-07 06:04:07.730 ,4,1,0.,4.8,2240.,4.8,0.,4.8,0.,4.8
1979-07-07 06:04:12.530 ,4,1,0.,4.8,2624.,4.8,1.,4.8,0.,4.8
1979-07-07 06:04:17.330 ,4,1,0.,4.8,440.,4.8,0.,4.8,0.,4.8
1979-07-07 06:04:22.130 ,4,1,0.,4.8,1440.,4.8,0.,4.8,0.,4.8
1979-07-07 06:04:26.930 ,7,1,0.,4.8,768.,4.8,0.,4.8,0.,4.8
1979-07-07 06:04:31.730 ,7,1,0.,4.8,1824.,4.8,0.,4.8,0.,4.8
1979-07-07 06:04:36.530 ,7,1,0.,4.8,3584.,4.8,0.,4.8,0.,4.8
1979-07-07 06:04:41.330 ,7,1,0.,4.8,2240.,4.8,0.,4.8,0.,4.8
1979-07-07 06:04:46.130 ,7,1,0.,4.8,2368.,4.8,0.,4.8,0.,4.8
1979-07-07 06:04:50.930 ,3,1,0.,4.8,2688.,4.8,0.,4.8,0.,4.8
1979-07-07 06:04:55.730 ,3,1,0.,4.8,816.,4.8,0.,4.8,0.,4.8
1979-07-07 06:05:00.530 ,3,1,0.,4.8,3136.,4.8,0.,4.8,0.,4.8
1979-07-07 06:05:05.330 ,3,1,0.,4.8,3136.,4.8,0.,4.8,0.,4.8
1979-07-07 06:05:10.130 ,3,1,0.,4.8,156.,4.8,0.,4.8,0.,4.8
1979-07-07 06:05:14.930 ,0,1,0.,4.8,2368.,4.8,0.,4.8,0.,4.8
1979-07-07 06:05:19.730 ,0,1,0.,4.8,3136.,4.8,0.,4.8,0.,4.8
1979-07-07 06:05:24.530 ,0,1,0.,4.8,432.,4.8,0.,4.8,0.,4.8
1979-07-07 06:05:29.330 ,0,1,0.,4.8,2560.,4.8,0.,4.8,0.,4.8
1979-07-07 06:05:34.130 ,0,1,0.,4.8,3136.,4.8,0.,4.8,0.,4.8
1979-07-07 06:05:38.930 ,0,0,0.,4.8,2880.,4.8,0.,4.8,0.,4.8
1979-07-07 06:05:43.730 ,0,0,0.,4.8,2496.,4.8,0.,4.8,0.,4.8
1979-07-07 06:05:48.530 ,0,0,0.,4.8,3456.,4.8,0.,4.8,0.,4.8
1979-07-07 06:05:53.330 ,0,0,0.,4.8,768.,4.8,0.,4.8,0.,4.8
1979-07-07 06:05:58.130 ,0,0,0.,4.8,1056.,4.8,0.,4.8,0.,4.8
1979-07-07 06:06:02.930 ,0,0,0.,4.8,2816.,4.8,1.,4.8,0.,4.8
1979-07-07 06:06:07.730 ,0,0,0.,4.8,928.,4.8,1.,4.8,0.,4.8
1979-07-07 06:06:12.530 ,0,0,0.,4.8,2816.,4.8,0.,4.8,0.,4.8
1979-07-07 06:06:17.330 ,0,0,0.,4.8,1856.,4.8,0.,4.8,0.,4.8
1979-07-07 06:06:22.130 ,0,0,0.,4.8,2688.,4.8,0.,4.8,0.,4.8
1979-07-07 06:06:26.930 ,5,0,0.,4.8,3136.,4.8,0.,4.8,0.,4.8
1979-07-07 06:06:31.730 ,5,0,0.,4.8,2432.,4.8,1.,4.8,0.,4.8
1979-07-07 06:06:36.530 ,5,0,0.,4.8,3840.,4.8,0.,4.8,0.,4.8
1979-07-07 06:06:41.330 ,5,0,0.,4.8,3776.,4.8,1.,4.8,0.,4.8
1979-07-07 06:06:46.130 ,5,0,0.,4.8,3136.,4.8,0.,4.8,0.,4.8
1979-07-07 06:06:50.930 ,5,0,0.,4.8,3264.,4.8,0.,4.8,0.,4.8
1979-07-07 06:06:55.730 ,5,0,0.,4.8,2496.,4.8,0.,4.8,0.,4.8
1979-07-07 06:07:00.530 ,5,0,0.,4.8,2560.,4.8,0.,4.8,0.,4.8
1979-07-07 06:07:05.330 ,5,0,0.,4.8,1728.,4.8,0.,4.8,0.,4.8
1979-07-07 06:07:10.130 ,5,0,0.,4.8,176.,4.8,1.,4.8,0.,4.8
1979-07-07 06:07:14.930 ,4,0,0.,4.8,3712.,4.8,0.,4.8,0.,4.8
1979-07-07 06:07:19.730 ,4,0,0.,4.8,2752.,4.8,0.,4.8,0.,4.8
1979-07-07 06:07:24.530 ,4,0,0.,4.8,2048.,4.8,0.,4.8,0.,4.8
1979-07-07 06:07:29.330 ,4,0,0.,4.8,2016.,4.8,0.,4.8,0.,4.8
1979-07-07 06:07:34.130 ,4,0,0.,4.8,1888.,4.8,1.,4.8,0.,4.8
1979-07-07 06:07:38.930 ,4,0,0.,4.8,1920.,4.8,0.,4.8,0.,4.8
1979-07-07 06:07:43.730 ,4,0,0.,4.8,1696.,4.8,0.,4.8,0.,4.8
1979-07-07 06:07:48.530 ,4,0,0.,4.8,1920.,4.8,0.,4.8,0.,4.8
1979-07-07 06:07:53.330 ,4,0,0.,4.8,944.,4.8,0.,4.8,0.,4.8
1979-07-07 06:07:58.130 ,4,0,0.,4.8,992.,4.8,0.,4.8,0.,4.8
1979-07-07 06:08:02.930 ,3,0,0.,4.8,1312.,4.8,0.,4.8,0.,4.8
1979-07-07 06:08:07.730 ,3,0,0.,4.8,3008.,4.8,0.,4.8,0.,4.8
1979-07-07 06:08:12.530 ,3,0,0.,4.8,1440.,4.8,0.,4.8,0.,4.8
1979-07-07 06:08:17.330 ,3,0,0.,4.8,296.,4.8,0.,4.8,0.,4.8
1979-07-07 06:08:22.130 ,3,0,0.,4.8,1024.,4.8,0.,4.8,0.,4.8
1979-07-07 06:08:26.930 ,3,0,0.,4.8,672.,4.8,0.,4.8,0.,4.8
1979-07-07 06:08:31.730 ,3,0,0.,4.8,1120.,4.8,0.,4.8,0.,4.8
1979-07-07 06:08:36.530 ,3,0,0.,4.8,472.,4.8,0.,4.8,0.,4.8
1979-07-07 06:08:41.330 ,3,0,0.,4.8,408.,4.8,0.,4.8,0.,4.8
1979-07-07 06:08:46.130 ,3,0,0.,4.8,992.,4.8,0.,4.8,0.,4.8
1979-07-07 06:08:50.930 ,2,0,0.,4.8,1536.,4.8,0.,4.8,0.,4.8
1979-07-07 06:08:55.730 ,2,0,0.,4.8,3520.,4.8,0.,4.8,0.,4.8
1979-07-07 06:09:00.530 ,2,0,0.,4.8,2816.,4.8,0.,4.8,0.,4.8
1979-07-07 06:09:05.330 ,2,0,0.,4.8,3008.,4.8,0.,4.8,0.,4.8
1979-07-07 06:09:10.130 ,2,0,0.,4.8,2560.,4.8,0.,4.8,0.,4.8
1979-07-07 06:09:14.930 ,2,0,0.,4.8,2432.,4.8,0.,4.8,0.,4.8
1979-07-07 06:09:19.730 ,2,0,0.,4.8,2368.,4.8,0.,4.8,0.,4.8
1979-07-07 06:09:24.530 ,2,0,0.,4.8,2016.,4.8,0.,4.8,0.,4.8
1979-07-07 06:09:29.330 ,2,0,0.,4.8,1632.,4.8,0.,4.8,0.,4.8
1979-07-07 06:09:34.130 ,2,0,0.,4.8,928.,4.8,0.,4.8,0.,4.8
1979-07-07 06:09:38.930 ,1,0,0.,4.8,1184.,4.8,0.,4.8,0.,4.8
1979-07-07 06:09:43.730 ,1,0,0.,4.8,1536.,4.8,1.,4.8,0.,4.8
1979-07-07 06:09:48.530 ,1,0,0.,4.8,2112.,4.8,0.,4.8,0.,4.8
1979-07-07 06:09:53.330 ,1,0,0.,4.8,1792.,4.8,0.,4.8,0.,4.8
1979-07-07 06:09:58.130 ,1,0,0.,4.8,2496.,4.8,0.,4.8,0.,4.8
1979-07-07 06:10:02.930 ,1,0,0.,4.8,2880.,4.8,0.,4.8,0.,4.8
1979-07-07 06:10:07.730 ,1,0,0.,4.8,3200.,4.8,1.,4.8,0.,4.8
1979-07-07 06:10:12.530 ,1,0,0.,4.8,3392.,4.8,0.,4.8,0.,4.8
1979-07-07 06:10:17.330 ,1,0,0.,4.8,164.,4.8,0.,4.8,0.,4.8
1979-07-07 06:10:22.130 ,1,0,0.,4.8,21.,4.8,0.,4.8,0.,4.8
1979-07-07 06:10:26.930 ,0,0,0.,4.8,212.,4.8,0.,4.8,0.,4.8
1979-07-07 06:10:31.730 ,0,0,0.,4.8,1088.,4.8,0.,4.8,0.,4.8
1979-07-07 06:10:36.530 ,0,0,0.,4.8,3136.,4.8,0.,4.8,0.,4.8
1979-07-07 06:10:41.330 ,0,0,0.,4.8,2240.,4.8,0.,4.8,0.,4.8
1979-07-07 06:10:46.130 ,0,0,0.,4.8,2432.,4.8,0.,4.8,0.,4.8
1979-07-07 06:10:50.930 ,0,0,0.,4.8,2560.,4.8,0.,4.8,0.,4.8
1979-07-07 06:10:55.730 ,0,0,0.,4.8,2944.,4.8,0.,4.8,0.,4.8
1979-07-07 06:11:00.530 ,0,0,0.,4.8,2112.,4.8,0.,4.8,0.,4.8
1979-07-07 06:11:05.330 ,0,0,0.,4.8,976.,4.8,0.,4.8,0.,4.8
1979-07-07 06:11:10.130 ,0,0,0.,4.8,992.,4.8,0.,4.8,0.,4.8
1979-07-07 06:11:14.930 ,0,0,0.,4.8,1632.,4.8,0.,4.8,0.,4.8
1979-07-07 06:11:19.730 ,0,0,0.,4.8,1152.,4.8,0.,4.8,0.,4.8
1979-07-07 06:11:24.530 ,0,0,0.,4.8,1376.,4.8,0.,4.8,0.,4.8
1979-07-07 06:11:29.330 ,0,0,0.,4.8,1312.,4.8,0.,4.8,0.,4.8
1979-07-07 06:11:34.130 ,0,0,0.,4.8,1632.,4.8,0.,4.8,0.,4.8
1979-07-07 06:11:38.930 ,0,0,0.,4.8,1376.,4.8,0.,4.8,0.,4.8
1979-07-07 06:11:43.730 ,0,0,0.,4.8,1760.,4.8,0.,4.8,0.,4.8
1979-07-07 06:11:48.530 ,0,0,0.,4.8,1376.,4.8,0.,4.8,0.,4.8
1979-07-07 06:11:53.330 ,0,0,0.,4.8,1248.,4.8,0.,4.8,0.,4.8
1979-07-07 06:11:58.130 ,0,0,0.,4.8,1920.,4.8,0.,4.8,0.,4.8
1979-07-07 06:12:02.930 ,1,0,0.,4.8,1792.,4.8,0.,4.8,0.,4.8
1979-07-07 06:12:07.730 ,1,0,0.,4.8,656.,4.8,0.,4.8,0.,4.8
1979-07-07 06:12:12.530 ,1,0,0.,4.8,4032.,4.8,0.,4.8,0.,4.8
1979-07-07 06:12:17.330 ,1,0,0.,4.8,3840.,4.8,0.,4.8,0.,4.8
1979-07-07 06:12:22.130 ,1,0,0.,4.8,3968.,4.8,0.,4.8,0.,4.8
1979-07-07 06:12:26.930 ,1,0,0.,4.8,3648.,4.8,0.,4.8,0.,4.8
1979-07-07 06:12:31.730 ,1,0,0.,4.8,3456.,4.8,0.,4.8,0.,4.8
1979-07-07 06:12:36.530 ,1,0,0.,4.8,3008.,4.8,0.,4.8,0.,4.8
1979-07-07 06:12:41.330 ,1,0,0.,4.8,3200.,4.8,0.,4.8,0.,4.8
1979-07-07 06:12:46.130 ,1,0,0.,4.8,3136.,4.8,0.,4.8,0.,4.8
1979-07-07 06:12:50.930 ,2,0,0.,4.8,2752.,4.8,0.,4.8,0.,4.8
1979-07-07 06:12:55.730 ,2,0,0.,4.8,2944.,4.8,0.,4.8,0.,4.8
1979-07-07 06:13:00.530 ,2,0,0.,4.8,2688.,4.8,0.,4.8,0.,4.8
1979-07-07 06:13:05.330 ,2,0,0.,4.8,3200.,4.8,0.,4.8,0.,4.8
1979-07-07 06:13:10.130 ,2,0,0.,4.8,3136.,4.8,0.,4.8,0.,4.8
1979-07-07 06:13:14.930 ,2,0,0.,4.8,2496.,4.8,0.,4.8,0.,4.8
1979-07-07 06:13:19.730 ,2,0,0.,4.8,2304.,4.8,0.,4.8,0.,4.8
1979-07-07 06:13:24.530 ,2,0,0.,4.8,3328.,4.8,0.,4.8,0.,4.8
1979-07-07 06:13:29.330 ,2,0,0.,4.8,344.,4.8,0.,4.8,0.,4.8
1979-07-07 06:13:34.130 ,2,0,0.,4.8,3520.,4.8,0.,4.8,0.,4.8
1979-07-07 06:13:38.930 ,3,0,0.,4.8,376.,4.8,0.,4.8,0.,4.8
1979-07-07 06:13:43.730 ,3,0,0.,4.8,1248.,4.8,0.,4.8,0.,4.8
1979-07-07 06:13:48.530 ,3,0,0.,4.8,2176.,4.8,0.,4.8,0.,4.8
1979-07-07 06:13:53.330 ,3,0,0.,4.8,1856.,4.8,0.,4.8,0.,4.8
1979-07-07 06:13:58.130 ,3,0,0.,4.8,1888.,4.8,0.,4.8,0.,4.8
1979-07-07 06:14:02.930 ,3,0,0.,4.8,1792.,4.8,0.,4.8,0.,4.8
1979-07-07 06:14:07.730 ,3,0,0.,4.8,1504.,4.8,0.,4.8,0.,4.8
1979-07-07 06:14:12.530 ,3,0,0.,4.8,1312.,4.8,0.,4.8,0.,4.8
1979-07-07 06:14:17.330 ,3,0,0.,4.8,576.,4.8,0.,4.8,0.,4.8
1979-07-07 06:14:22.130 ,3,0,0.,4.8,928.,4.8,0.,4.8,0.,4.8
1979-07-07 06:14:26.930 ,4,0,0.,4.8,1440.,4.8,0.,4.8,0.,4.8
1979-07-07 06:14:31.730 ,4,0,0.,4.8,3136.,4.8,0.,4.8,0.,4.8
1979-07-07 06:14:36.530 ,4,0,0.,4.8,1472.,4.8,1.,4.8,0.,4.8
1979-07-07 06:14:41.330 ,4,0,0.,4.8,1024.,4.8,0.,4.8,0.,4.8
1979-07-07 06:14:46.130 ,4,0,0.,4.8,1568.,4.8,0.,4.8,0.,4.8
1979-07-07 06:14:50.930 ,4,0,0.,4.8,1248.,4.8,0.,4.8,0.,4.8
1979-07-07 06:14:55.730 ,4,0,0.,4.8,784.,4.8,0.,4.8,0.,4.8
1979-07-07 06:15:00.530 ,4,0,0.,4.8,1280.,4.8,0.,4.8,0.,4.8
1979-07-07 06:15:05.330 ,4,0,0.,4.8,2112.,4.8,0.,4.8,0.,4.8
1979-07-07 06:15:10.130 ,4,0,0.,4.8,2240.,4.8,0.,4.8,0.,4.8
1979-07-07 06:15:14.930 ,5,0,0.,4.8,2304.,4.8,0.,4.8,0.,4.8
1979-07-07 06:15:19.730 ,5,0,0.,4.8,2368.,4.8,0.,4.8,0.,4.8
1979-07-07 06:15:24.530 ,5,0,0.,4.8,2816.,4.8,0.,4.8,0.,4.8
1979-07-07 06:15:29.330 ,5,0,0.,4.8,3136.,4.8,0.,4.8,0.,4.8
1979-07-07 06:15:34.130 ,5,0,0.,4.8,3584.,4.8,0.,4.8,0.,4.8
1979-07-07 06:15:38.930 ,5,0,0.,4.8,132.,4.8,0.,4.8,0.,4.8
1979-07-07 06:15:43.730 ,5,0,0.,4.8,448.,4.8,0.,4.8,0.,4.8
1979-07-07 06:15:48.530 ,5,0,0.,4.8,592.,4.8,0.,4.8,0.,4.8
1979-07-07 06:15:53.330 ,5,0,0.,4.8,992.,4.8,0.,4.8,0.,4.8
1979-07-07 06:15:58.130 ,5,0,0.,4.8,864.,4.8,0.,4.8,0.,4.8
1979-07-07 06:16:02.930 ,6,0,0.,4.8,1088.,4.8,0.,4.8,0.,4.8
1979-07-07 06:16:07.730 ,6,0,0.,4.8,3840.,4.8,0.,4.8,0.,4.8
1979-07-07 06:16:12.530 ,6,0,0.,4.8,928.,4.8,0.,4.8,0.,4.8
1979-07-07 06:16:17.330 ,6,0,0.,4.8,1472.,4.8,0.,4.8,0.,4.8
1979-07-07 06:16:22.130 ,6,0,0.,4.8,1760.,4.8,0.,4.8,0.,4.8
1979-07-07 06:16:26.930 ,6,0,0.,4.8,1760.,4.8,0.,4.8,0.,4.8
1979-07-07 06:16:31.730 ,6,0,0.,4.8,1504.,4.8,0.,4.8,0.,4.8
1979-07-07 06:16:36.530 ,6,0,0.,4.8,1952.,4.8,0.,4.8,0.,4.8
1979-07-07 06:16:41.330 ,6,0,0.,4.8,3456.,4.8,0.,4.8,0.,4.8
1979-07-07 06:16:46.130 ,6,0,0.,4.8,2816.,4.8,0.,4.8,0.,4.8
1979-07-07 06:16:50.930 ,7,0,0.,4.8,3520.,4.8,0.,4.8,0.,4.8
1979-07-07 06:16:55.730 ,7,0,0.,4.8,2880.,4.8,0.,4.8,0.,4.8
1979-07-07 06:17:00.530 ,7,0,0.,4.8,1696.,4.8,1.,4.8,0.,4.8
1979-07-07 06:17:05.330 ,7,0,0.,4.8,2016.,4.8,0.,4.8,0.,4.8
1979-07-07 06:17:10.130 ,7,0,0.,4.8,2048.,4.8,0.,4.8,0.,4.8
1979-07-07 06:17:14.930 ,7,0,0.,4.8,1984.,4.8,1.,4.8,0.,4.8
1979-07-07 06:17:19.730 ,7,0,0.,4.8,2048.,4.8,0.,4.8,0.,4.8
1979-07-07 06:17:24.530 ,7,0,0.,4.8,896.,4.8,0.,4.8,0.,4.8
1979-07-07 06:17:29.330 ,7,0,0.,4.8,55.,4.8,0.,4.8,0.,4.8
1979-07-07 06:17:34.130 ,7,0,0.,4.8,3776.,4.8,0.,4.8,0.,4.8
1979-07-07 06:17:38.930 ,7,0,0.,4.8,3328.,4.8,0.,4.8,0.,4.8
1979-07-07 06:17:43.730 ,7,0,0.,4.8,3904.,4.8,0.,4.8,0.,4.8
1979-07-07 06:17:48.530 ,7,0,0.,4.8,3072.,4.8,0.,4.8,0.,4.8
1979-07-07 06:17:53.330 ,7,0,0.,4.8,3072.,4.8,0.,4.8,0.,4.8
1979-07-07 06:17:58.130 ,7,0,0.,4.8,2688.,4.8,0.,4.8,0.,4.8
1979-07-07 06:18:02.930 ,7,0,0.,4.8,3648.,4.8,0.,4.8,0.,4.8
1979-07-07 06:18:07.730 ,7,0,0.,4.8,3200.,4.8,0.,4.8,0.,4.8
1979-07-07 06:18:12.530 ,7,0,0.,4.8,3392.,4.8,0.,4.8,0.,4.8
1979-07-07 06:18:17.330 ,7,0,0.,4.8,3072.,4.8,0.,4.8,0.,4.8
1979-07-07 06:18:22.130 ,7,0,0.,4.8,3520.,4.8,0.,4.8,0.,4.8
1979-07-07 06:18:26.930 ,6,0,0.,4.8,3968.,4.8,0.,4.8,0.,4.8
1979-07-07 06:18:31.730 ,6,0,0.,4.8,3904.,4.8,0.,4.8,0.,4.8
1979-07-07 06:18:36.530 ,6,0,0.,4.8,992.,4.8,0.,4.8,0.,4.8
1979-07-07 06:18:41.330 ,6,0,0.,4.8,816.,4.8,0.,4.8,0.,4.8
1979-07-07 06:18:46.130 ,6,0,0.,4.8,880.,4.8,0.,4.8,0.,4.8
1979-07-07 06:18:50.930 ,6,0,0.,4.8,360.,4.8,0.,4.8,0.,4.8
1979-07-07 06:18:55.730 ,6,0,0.,4.8,624.,4.8,0.,4.8,0.,4.8
1979-07-07 06:19:00.530 ,6,0,0.,4.8,3776.,4.8,1.,4.8,0.,4.8
1979-07-07 06:19:05.330 ,6,0,0.,4.8,560.,4.8,0.,4.8,0.,4.8
1979-07-07 06:19:10.130 ,6,0,0.,4.8,328.,4.8,0.,4.8,0.,4.8
1979-07-07 06:19:14.930 ,5,0,0.,4.8,196.,4.8,0.,4.8,0.,4.8
1979-07-07 06:19:19.730 ,5,0,0.,4.8,2112.,4.8,1.,4.8,0.,4.8
1979-07-07 06:19:24.530 ,5,0,0.,4.8,3.,4.8,0.,4.8,0.,4.8
1979-07-07 06:19:29.330 ,5,0,0.,4.8,3840.,4.8,0.,4.8,0.,4.8
1979-07-07 06:19:34.130 ,5,0,0.,4.8,3520.,4.8,0.,4.8,0.,4.8
1979-07-07 06:19:38.930 ,5,0,0.,4.8,3776.,4.8,0.,4.8,0.,4.8
1979-07-07 06:19:43.730 ,5,0,0.,4.8,3904.,4.8,0.,4.8,0.,4.8
1979-07-07 06:19:48.530 ,5,0,0.,4.8,3712.,4.8,0.,4.8,0.,4.8
1979-07-07 06:19:53.330 ,5,0,0.,4.8,992.,4.8,0.,4.8,0.,4.8
1979-07-07 06:19:58.130 ,5,0,0.,4.8,944.,4.8,0.,4.8,0.,4.8
1979-07-07 06:20:02.930 ,4,0,0.,4.8,4032.,4.8,0.,4.8,0.,4.8
1979-07-07 06:20:07.730 ,4,0,0.,4.8,800.,4.8,0.,4.8,0.,4.8
1979-07-07 06:20:12.530 ,4,0,0.,4.8,3904.,4.8,0.,4.8,0.,4.8
1979-07-07 06:20:17.330 ,4,0,0.,4.8,224.,4.8,0.,4.8,0.,4.8
1979-07-07 06:20:22.130 ,4,0,0.,4.8,704.,4.8,0.,4.8,0.,4.8
1979-07-07 06:20:26.930 ,4,0,0.,4.8,4032.,4.8,0.,4.8,0.,4.8
1979-07-07 06:20:31.730 ,4,0,0.,4.8,3712.,4.8,1.,4.8,0.,4.8
1979-07-07 06:20:36.530 ,4,0,0.,4.8,3264.,4.8,0.,4.8,0.,4.8
1979-07-07 06:20:41.330 ,4,0,0.,4.8,1920.,4.8,0.,4.8,0.,4.8
1979-07-07 06:20:46.130 ,4,0,0.,4.8,1856.,4.8,0.,4.8,0.,4.8
1979-07-07 06:20:50.930 ,3,0,0.,4.8,1504.,4.8,0.,4.8,0.,4.8
1979-07-07 06:20:55.730 ,3,0,0.,4.8,3520.,4.8,0.,4.8,0.,4.8
1979-07-07 06:21:00.530 ,3,0,0.,4.8,976.,4.8,0.,4.8,0.,4.8
1979-07-07 06:21:05.330 ,3,0,0.,4.8,864.,4.8,0.,4.8,0.,4.8
1979-07-07 06:21:10.130 ,3,0,0.,4.8,800.,4.8,0.,4.8,0.,4.8
1979-07-07 06:21:14.930 ,3,0,0.,4.8,928.,4.8,0.,4.8,0.,4.8
1979-07-07 06:21:19.730 ,3,0,0.,4.8,848.,4.8,0.,4.8,0.,4.8
1979-07-07 06:21:24.530 ,3,0,0.,4.8,672.,4.8,0.,4.8,0.,4.8
1979-07-07 06:21:29.330 ,3,0,0.,4.8,544.,4.8,0.,4.8,0.,4.8
1979-07-07 06:21:34.130 ,3,0,0.,4.8,576.,4.8,1.,4.8,0.,4.8
1979-07-07 06:21:38.930 ,2,0,0.,4.8,848.,4.8,0.,4.8,0.,4.8
1979-07-07 06:21:43.730 ,2,0,0.,4.8,3456.,4.8,0.,4.8,0.,4.8
1979-07-07 06:21:48.530 ,2,0,0.,4.8,2016.,4.8,0.,4.8,0.,4.8
1979-07-07 06:21:53.330 ,2,0,0.,4.8,1856.,4.8,0.,4.8,0.,4.8
1979-07-07 06:21:58.130 ,2,0,0.,4.8,1920.,4.8,0.,4.8,0.,4.8
1979-07-07 06:22:02.930 ,2,0,0.,4.8,1536.,4.8,0.,4.8,0.,4.8
1979-07-07 06:22:07.730 ,2,0,0.,4.8,1088.,4.8,1.,4.8,0.,4.8
1979-07-07 06:22:12.530 ,2,0,0.,4.8,1536.,4.8,0.,4.8,0.,4.8
1979-07-07 06:22:17.330 ,2,0,0.,4.8,1568.,4.8,0.,4.8,0.,4.8
1979-07-07 06:22:22.130 ,2,0,0.,4.8,1568.,4.8,0.,4.8,0.,4.8
1979-07-07 06:22:26.930 ,1,0,0.,4.8,1472.,4.8,0.,4.8,0.,4.8
1979-07-07 06:22:31.730 ,1,0,0.,4.8,1728.,4.8,0.,4.8,0.,4.8
1979-07-07 06:22:36.530 ,1,0,0.,4.8,1536.,4.8,0.,4.8,0.,4.8
1979-07-07 06:22:41.330 ,1,0,0.,4.8,2304.,4.8,0.,4.8,0.,4.8
1979-07-07 06:22:46.130 ,1,0,0.,4.8,3008.,4.8,0.,4.8,0.,4.8
1979-07-07 06:22:50.930 ,1,0,0.,4.8,2368.,4.8,1.,4.8,0.,4.8
1979-07-07 06:22:55.730 ,1,0,0.,4.8,1888.,4.8,0.,4.8,0.,4.8
1979-07-07 06:23:00.530 ,1,0,0.,4.8,2368.,4.8,0.,4.8,0.,4.8
1979-07-07 06:23:05.330 ,1,0,0.,4.8,3520.,4.8,0.,4.8,0.,4.8
1979-07-07 06:23:10.130 ,1,0,0.,4.8,3840.,4.8,0.,4.8,0.,4.8
1979-07-07 06:23:14.930 ,0,0,0.,4.8,3008.,4.8,0.,4.8,0.,4.8
1979-07-07 06:23:19.730 ,0,0,0.,4.8,320.,4.8,0.,4.8,0.,4.8
1979-07-07 06:23:24.530 ,0,0,0.,4.8,592.,4.8,0.,4.8,0.,4.8
1979-07-07 06:23:29.330 ,0,0,0.,4.8,80.,4.8,0.,4.8,0.,4.8
1979-07-07 06:23:34.130 ,0,0,0.,4.8,3712.,4.8,0.,4.8,0.,4.8
1979-07-07 06:23:38.930 ,0,0,0.,4.8,3520.,4.8,0.,4.8,0.,4.8
1979-07-07 06:23:43.730 ,0,0,0.,4.8,3776.,4.8,0.,4.8,0.,4.8
1979-07-07 06:23:48.530 ,0,0,0.,4.8,3008.,4.8,0.,4.8,0.,4.8
1979-07-07 06:23:53.330 ,0,0,0.,4.8,1888.,4.8,0.,4.8,0.,4.8
1979-07-07 06:23:58.130 ,0,0,0.,4.8,1504.,4.8,0.,4.8,0.,4.8
1979-07-07 06:24:02.930 ,0,0,0.,4.8,1664.,4.8,0.,4.8,0.,4.8
1979-07-07 06:24:07.730 ,0,0,0.,4.8,1504.,4.8,0.,4.8,0.,4.8
1979-07-07 06:24:12.530 ,0,0,0.,4.8,1376.,4.8,0.,4.8,0.,4.8
1979-07-07 06:24:17.330 ,0,0,0.,4.8,1024.,4.8,0.,4.8,0.,4.8
1979-07-07 06:24:22.130 ,0,0,0.,4.8,576.,4.8,0.,4.8,0.,4.8
1979-07-07 06:24:26.930 ,0,0,0.,4.8,512.,4.8,0.,4.8,0.,4.8
1979-07-07 06:24:31.730 ,0,0,0.,4.8,512.,4.8,0.,4.8,0.,4.8
1979-07-07 06:24:36.530 ,0,0,0.,4.8,528.,4.8,0.,4.8,0.,4.8
1979-07-07 06:24:41.330 ,0,0,0.,4.8,752.,4.8,0.,4.8,0.,4.8
1979-07-07 06:24:46.130 ,0,0,0.,4.8,488.,4.8,0.,4.8,0.,4.8
1979-07-07 06:24:50.930 ,1,0,0.,4.8,140.,4.8,0.,4.8,0.,4.8
1979-07-07 06:24:55.730 ,1,0,0.,4.8,3264.,4.8,0.,4.8,0.,4.8
1979-07-07 06:25:00.530 ,1,0,0.,4.8,2176.,4.8,0.,4.8,0.,4.8
1979-07-07 06:25:05.330 ,1,0,0.,4.8,2016.,4.8,0.,4.8,0.,4.8
1979-07-07 06:25:10.130 ,1,0,0.,4.8,1280.,4.8,0.,4.8,0.,4.8
1979-07-07 06:25:14.930 ,1,0,0.,4.8,1344.,4.8,0.,4.8,0.,4.8
1979-07-07 06:25:19.730 ,1,0,0.,4.8,1088.,4.8,0.,4.8,0.,4.8
1979-07-07 06:25:24.530 ,1,0,0.,4.8,1536.,4.8,0.,4.8,0.,4.8
1979-07-07 06:25:29.330 ,1,0,0.,4.8,3904.,4.8,0.,4.8,0.,4.8
1979-07-07 06:25:34.130 ,1,0,0.,4.8,448.,4.8,0.,4.8,0.,4.8
1979-07-07 06:25:38.930 ,2,0,0.,4.8,256.,4.8,0.,4.8,0.,4.8
1979-07-07 06:25:43.730 ,2,0,0.,4.8,816.,4.8,0.,4.8,0.,4.8
1979-07-07 06:25:48.530 ,2,0,0.,4.8,912.,4.8,0.,4.8,0.,4.8
1979-07-07 06:25:53.330 ,2,0,0.,4.8,3584.,4.8,0.,4.8,0.,4.8
1979-07-07 06:25:58.130 ,2,0,0.,4.8,3840.,4.8,0.,4.8,0.,4.8
1979-07-07 06:26:02.930 ,2,0,0.,4.8,3328.,4.8,0.,4.8,0.,4.8
1979-07-07 06:26:07.730 ,2,0,0.,4.8,3264.,4.8,0.,4.8,0.,4.8
1979-07-07 06:26:12.530 ,2,0,0.,4.8,3584.,4.8,0.,4.8,0.,4.8
1979-07-07 06:26:17.330 ,2,0,0.,4.8,4032.,4.8,0.,4.8,0.,4.8
1979-07-07 06:26:22.130 ,2,0,0.,4.8,3968.,4.8,0.,4.8,0.,4.8
1979-07-07 06:26:26.930 ,3,0,0.,4.8,45.,4.8,0.,4.8,0.,4.8
1979-07-07 06:26:31.730 ,3,0,0.,4.8,1376.,4.8,0.,4.8,0.,4.8
1979-07-07 06:26:36.530 ,3,0,0.,4.8,2368.,4.8,0.,4.8,0.,4.8
1979-07-07 06:26:41.330 ,3,0,0.,4.8,2304.,4.8,0.,4.8,0.,4.8
1979-07-07 06:26:46.130 ,3,0,0.,4.8,2304.,4.8,0.,4.8,0.,4.8
1979-07-07 06:26:50.930 ,3,0,0.,4.8,1856.,4.8,0.,4.8,0.,4.8
1979-07-07 06:26:55.730 ,3,0,0.,4.8,2112.,4.8,1.,4.8,0.,4.8
1979-07-07 06:27:00.530 ,3,0,0.,4.8,1792.,4.8,0.,4.8,0.,4.8
1979-07-07 06:27:05.330 ,3,0,0.,4.8,768.,4.8,0.,4.8,0.,4.8
1979-07-07 06:27:10.130 ,3,0,0.,4.8,1088.,4.8,0.,4.8,0.,4.8
1979-07-07 06:27:14.930 ,4,0,0.,4.8,544.,4.8,0.,4.8,0.,4.8
1979-07-07 06:27:19.730 ,4,0,0.,4.8,2560.,4.8,0.,4.8,0.,4.8
1979-07-07 06:27:24.530 ,4,0,0.,4.8,1056.,4.8,0.,4.8,0.,4.8
1979-07-07 06:27:29.330 ,4,0,0.,4.8,752.,4.8,0.,4.8,0.,4.8
1979-07-07 06:27:34.130 ,4,0,0.,4.8,312.,4.8,0.,4.8,0.,4.8
1979-07-07 06:27:38.930 ,4,0,0.,4.8,784.,4.8,0.,4.8,0.,4.8
1979-07-07 06:27:43.730 ,4,0,0.,4.8,704.,4.8,0.,4.8,0.,4.8
1979-07-07 06:27:48.530 ,4,0,0.,4.8,232.,4.8,1.,4.8,0.,4.8
1979-07-07 06:27:53.330 ,4,0,0.,4.8,3904.,4.8,0.,4.8,0.,4.8
1979-07-07 06:27:58.130 ,4,0,0.,4.8,3776.,4.8,0.,4.8,0.,4.8
1979-07-07 06:28:02.930 ,5,0,0.,4.8,264.,4.8,0.,4.8,0.,4.8
1979-07-07 06:28:07.730 ,5,0,0.,4.8,4.,4.8,0.,4.8,0.,4.8
1979-07-07 06:28:12.530 ,5,0,0.,4.8,3968.,4.8,0.,4.8,0.,4.8
1979-07-07 06:28:17.330 ,5,0,0.,4.8,102.,4.8,1.,4.8,0.,4.8
1979-07-07 06:28:22.130 ,5,0,0.,4.8,23.,4.8,0.,4.8,0.,4.8
1979-07-07 06:28:26.930 ,5,0,0.,4.8,156.,4.8,0.,4.8,0.,4.8
1979-07-07 06:28:31.730 ,5,0,0.,4.8,172.,4.8,0.,4.8,0.,4.8
1979-07-07 06:28:36.530 ,5,0,0.,4.8,3584.,4.8,0.,4.8,0.,4.8
1979-07-07 06:28:41.330 ,5,0,0.,4.8,3712.,4.8,0.,4.8,0.,4.8
1979-07-07 06:28:46.130 ,5,0,0.,4.8,4032.,4.8,0.,4.8,0.,4.8
1979-07-07 06:28:50.930 ,6,0,0.,4.8,3584.,4.8,0.,4.8,0.,4.8
1979-07-07 06:28:55.730 ,6,0,0.,4.8,1600.,4.8,0.,4.8,0.,4.8
1979-07-07 06:29:00.530 ,6,0,0.,4.8,3840.,4.8,0.,4.8,0.,4.8
1979-07-07 06:29:05.330 ,6,0,0.,4.8,86.,4.8,0.,4.8,0.,4.8
1979-07-07 06:29:10.130 ,6,0,0.,4.8,3904.,4.8,0.,4.8,0.,4.8
1979-07-07 06:29:14.930 ,6,0,0.,4.8,3712.,4.8,0.,4.8,0.,4.8
1979-07-07 06:29:19.730 ,6,0,0.,4.8,3648.,4.8,0.,4.8,0.,4.8
1979-07-07 06:29:24.530 ,6,0,0.,4.8,3264.,4.8,0.,4.8,0.,4.8
1979-07-07 06:29:29.330 ,6,0,0.,4.8,672.,4.8,0.,4.8,0.,4.8
1979-07-07 06:29:34.130 ,6,0,0.,4.8,448.,4.8,0.,4.8,0.,4.8
1979-07-07 06:29:38.930 ,7,0,0.,4.8,4032.,4.8,0.,4.8,0.,4.8
1979-07-07 06:29:43.730 ,7,0,0.,4.8,2368.,4.8,0.,4.8,0.,4.8
1979-07-07 06:29:48.530 ,7,0,0.,4.8,2048.,4.8,0.,4.8,0.,4.8
1979-07-07 06:29:53.330 ,7,0,0.,4.8,1920.,4.8,0.,4.8,0.,4.8
1979-07-07 06:29:58.130 ,7,0,0.,4.8,1376.,4.8,0.,4.8,0.,4.8
1979-07-07 06:30:02.930 ,7,0,0.,4.8,816.,4.8,0.,4.8,0.,4.8
1979-07-07 06:30:07.730 ,7,0,0.,4.8,64.,4.8,0.,4.8,0.,4.8
1979-07-07 06:30:12.530 ,7,0,0.,4.8,3968.,4.8,0.,4.8,0.,4.8
1979-07-07 06:30:17.330 ,7,0,0.,4.8,3328.,4.8,0.,4.8,0.,4.8
1979-07-07 06:30:22.130 ,7,0,0.,4.8,2752.,4.8,0.,4.8,0.,4.8
1979-07-07 06:30:26.930 ,7,0,0.,4.8,3584.,4.8,0.,4.8,0.,4.8
1979-07-07 06:30:31.730 ,7,0,0.,4.8,3456.,4.8,0.,4.8,0.,4.8
1979-07-07 06:30:36.530 ,7,0,0.,4.8,3264.,4.8,0.,4.8,0.,4.8
1979-07-07 06:30:41.330 ,7,0,0.,4.8,3136.,4.8,0.,4.8,0.,4.8
1979-07-07 06:30:46.130 ,7,0,0.,4.8,3072.,4.8,0.,4.8,0.,4.8
1979-07-07 06:30:50.930 ,7,0,0.,4.8,2368.,4.8,0.,4.8,0.,4.8
1979-07-07 06:30:55.730 ,7,0,0.,4.8,1472.,4.8,0.,4.8,0.,4.8
1979-07-07 06:31:00.530 ,7,0,0.,4.8,1216.,4.8,0.,4.8,0.,4.8
1979-07-07 06:31:05.330 ,7,0,0.,4.8,784.,4.8,0.,4.8,0.,4.8
1979-07-07 06:31:10.130 ,7,0,0.,4.8,344.,4.8,0.,4.8,0.,4.8
1979-07-07 06:31:14.930 ,6,0,0.,4.8,48.,4.8,0.,4.8,0.,4.8
1979-07-07 06:31:19.730 ,6,0,0.,4.8,376.,4.8,0.,4.8,0.,4.8
1979-07-07 06:31:24.530 ,6,0,0.,4.8,1600.,4.8,0.,4.8,0.,4.8
1979-07-07 06:31:29.330 ,6,0,0.,4.8,2432.,4.8,0.,4.8,0.,4.8
1979-07-07 06:31:34.130 ,6,0,0.,4.8,2816.,4.8,0.,4.8,0.,4.8
1979-07-07 06:31:38.930 ,6,0,0.,4.8,3584.,4.8,0.,4.8,0.,4.8
1979-07-07 06:31:43.730 ,6,0,0.,4.8,4032.,4.8,0.,4.8,0.,4.8
1979-07-07 06:31:48.530 ,6,0,0.,4.8,3968.,4.8,0.,4.8,0.,4.8
1979-07-07 06:31:53.330 ,6,0,0.,4.8,3840.,4.8,0.,4.8,0.,4.8